Change the Weather History Date:

Saturday, November 12, 2011

  Actual Average Record
Temperature  
Mean Temperature 67 °F 67 °F  
Max Temperature 82 °F 77 °F 91 °F (1969)
Min Temperature 52 °F 57 °F 37 °F (1907)
Degree Days  
Heating Degree Days 0 2  
Month to date heating degree days 31 19  
Since 1 July heating degree days 43 29  
Cooling Degree Days 2 4  
Month to date cooling degree days 61 66  
Year to date cooling degree days 3970 3417  
Growing Degree Days 17 (Base 50)    
Moisture  
Dew Point 57 °F    
Average Humidity 66    
Maximum Humidity 87    
Minimum Humidity 45    
Precipitation  
Precipitation 0.00 in 0.08 in 0.86 in (2001)
Month to date precipitation 0.28 0.99  
Year to date precipitation 10.82 28.95  
Snow  
Snow 0.00 in - - ()
Month to date snowfall 0.0  
Since 1 July snowfall 0.0  
Since 1 September snowfall 0.0  
Snow Depth 0.00 in    
Sea Level Pressure  
Sea Level Pressure 30.00 in    
Wind  
Wind Speed 14 mph (SSE)    
Max Wind Speed 29 mph    
Max Gust Speed 35 mph    
Visibility 10 miles    
Events      
T = Trace of Precipitation, MM = Missing Value Source: NWS Daily Summary

Daily Weather History Graph

Daily Weather History Graph

Search for Another Location

Airport or City:

Trip Planner

Search our weather history database for the weather conditions in past years. The results will help you decide how hot, cold, wet, or windy it might be!

Date:

Astronomy

Nov. 12, 2011 Rise Set
Actual Time 6:48 AM CST 5:39 PM CST
Civil Twilight 6:24 AM CST 6:03 PM CST
Nautical Twilight 5:56 AM CST 6:31 PM CST
Astronomical Twilight 5:28 AM CST 6:59 PM CST
Moon 7:05 PM CST (11/12) 8:23 AM CST (11/12)
Length of Visible Light 11h 39m
Length of Day
10h 50m
Full, 97% of the Moon is Illuminated
Nov 12
Full
Nov 18
Last Quarter
Nov 25
New
Dec 2
First Quarter
Dec 10
Full

Hourly Weather History & Observations

Time (CST) Temp. Heat Index Dew Point Humidity Pressure Visibility Wind Dir Wind Speed Gust Speed Precip Events Conditions
12:51 AM 54.0 °F - 45.0 °F 72% 30.09 in 10.0 mi South 8.1 mph - N/A   Clear
1:51 AM 53.1 °F - 45.0 °F 74% 30.07 in 10.0 mi South 6.9 mph - N/A   Clear
2:51 AM 53.1 °F - 46.9 °F 80% 30.05 in 10.0 mi SSE 5.8 mph - N/A   Clear
3:51 AM 54.0 °F - 46.9 °F 77% 30.04 in 10.0 mi South 8.1 mph - N/A   Clear
4:51 AM 55.9 °F - 48.9 °F 77% 30.02 in 10.0 mi SSE 10.4 mph - N/A   Partly Cloudy
5:51 AM 55.9 °F - 48.9 °F 77% 30.02 in 10.0 mi SSE 8.1 mph - N/A   Partly Cloudy
6:51 AM 57.9 °F - 52.0 °F 81% 30.02 in 10.0 mi SSE 9.2 mph - N/A   Scattered Clouds
7:51 AM 64.0 °F - 55.9 °F 75% 30.04 in 10.0 mi SSE 4.6 mph - N/A   Scattered Clouds
8:51 AM 73.0 °F - 60.1 °F 64% 30.05 in 10.0 mi South 18.4 mph - N/A   Scattered Clouds
9:51 AM 78.1 °F - 57.9 °F 50% 30.06 in 10.0 mi South 23.0 mph 29.9 mph N/A   Partly Cloudy
10:51 AM 81.0 °F 81.1 °F 57.9 °F 45% 30.06 in 10.0 mi South 24.2 mph 32.2 mph N/A   Mostly Cloudy
11:51 AM 79.0 °F - 57.9 °F 48% 30.03 in 10.0 mi South 23.0 mph 29.9 mph N/A   Overcast
12:51 PM 79.0 °F - 59.0 °F 50% 30.00 in 10.0 mi SSE 23.0 mph 28.8 mph N/A   Overcast
1:51 PM 81.0 °F 81.6 °F 60.1 °F 49% 29.97 in 10.0 mi South 20.7 mph - N/A   Overcast
2:51 PM 81.0 °F 81.7 °F 61.0 °F 50% 29.95 in 10.0 mi SSE 26.5 mph - N/A   Mostly Cloudy
3:51 PM 80.1 °F 81.1 °F 61.0 °F 52% 29.95 in 10.0 mi SSE 26.5 mph 32.2 mph N/A   Partly Cloudy
4:08 PM 80.6 °F 81.5 °F 60.8 °F 51% 29.95 in 10.0 mi SSE 23.0 mph 34.5 mph N/A   Partly Cloudy
4:51 PM 78.8 °F - 60.8 °F 54% 29.94 in 10.0 mi SSE 23.0 mph 31.1 mph N/A   Partly Cloudy
5:51 PM 75.0 °F - 61.0 °F 62% 29.94 in 10.0 mi SSE 18.4 mph - N/A   Partly Cloudy
6:51 PM 73.0 °F - 63.0 °F 71% 29.96 in 10.0 mi SSE 13.8 mph - N/A   Clear
7:51 PM 72.0 °F - 64.0 °F 76% 29.97 in 10.0 mi SSE 11.5 mph - N/A   Clear
8:51 PM 71.1 °F - 64.0 °F 78% 29.99 in 10.0 mi SSE 8.1 mph - N/A   Clear
9:51 PM 70.0 °F - 64.0 °F 81% 29.99 in 10.0 mi SSE 6.9 mph - N/A   Scattered Clouds
10:51 PM 66.9 °F - 62.1 °F 84% 29.98 in 10.0 mi SSE 8.1 mph - N/A   Partly Cloudy
11:51 PM 66.9 °F - 64.0 °F 90% 29.96 in 10.0 mi South 9.2 mph - N/A   Scattered Clouds